Flag for Paraguay Weather past 2 weeks in Asuncion, Paraguay

Now
90 °F

Passing clouds.


Feels Like: 86 °F
Forecast: N/A
Wind: 9 mph from Southeast

Location: Asuncion / Aeropuerto

Current Time: Oct 21, 2014 at 7:04:47 PM

Latest Report: Oct 21, 2014 at 6:00 PM


Visibility: N/A

Pressure: 29.95 "Hg

Humidity: 17%

Dew point: 39 °F

Location of AsuncionLocation

Historic Weather in Asuncion — Graph

°F

Asuncion temperature yesterday

Maximum temperature yesterday: 88 °F (at 1:00 PM)
Minimum temperature yesterday: 70 °F (at 3:00 AM)
Average temperature yesterday: 80 °F

Past Weeks' High & Low Weather Summary

 TemperatureHumidityPressure
High106 °F (Oct 16, 2:00 PM)100% (Oct 12, 7:00 AM)30.07 "Hg (Oct 12, 7:00 AM)
Low61 °F (Oct 11, 6:00 AM)14% (Oct 21, 3:00 PM)29.53 "Hg (Oct 18, 5:00 PM)
Average82 °F60%29.83 "Hg
* Reported Oct 6 6:00 PM — Oct 21 6:00 PM, Asuncion, Weather by CustomWeather, © 2014

Note: Actual official high and low records may vary slightly from our data, if they occured in-between our weather recording intervals... More about our weather records

Advertising

Asuncion weather history for previous 24 hours

 ConditionsComfort  
Time TempWeatherWind HumidityBarometerVisibility
6:00 PM
Oct 21
90 °FPassing clouds.9 mph17%29.95 "HgN/A
5:00 PM91 °FSunny.7 mph16%29.95 "Hg10 mi
4:00 PM93 °FPassing clouds.7 mph14%29.95 "HgN/A
3:00 PM93 °FPassing clouds.10 mph14%29.98 "HgN/A
2:00 PM91 °FSunny.5 mph17%30.01 "Hg10 mi
1:00 PM91 °FSunny.7 mph15%30.04 "Hg10 mi
12:00 PM90 °FSunny.6 mph20%30.04 "Hg10 mi
11:00 AM86 °FPassing clouds.9 mph25%30.07 "HgN/A
10:30 AM86 °FPassing clouds.9 mph25%30.07 "HgN/A
10:00 AM84 °FPassing clouds.9 mph29%30.07 "HgN/A
9:30 AM82 °FPassing clouds.8 mph30%30.07 "HgN/A
9:00 AM79 °FSunny.7 mph37%30.07 "Hg10 mi
8:30 AM77 °FSunny.3 mph42%30.07 "Hg10 mi
8:00 AM75 °FSunny.3 mph50%30.04 "Hg10 mi
7:00 AM68 °FSunny.3 mph64%30.01 "Hg10 mi
6:00 AM66 °FClear.6 mph60%30.01 "Hg10 mi
5:00 AM68 °FClear.No wind56%30.01 "Hg10 mi
4:00 AM72 °FClear.5 mph47%29.98 "Hg10 mi
3:00 AM73 °FClear.6 mph44%29.98 "Hg10 mi
2:00 AM73 °FClear.7 mph47%29.98 "Hg10 mi
1:00 AM75 °FClear.8 mph47%30.01 "Hg10 mi
12:00 AM77 °FClear.7 mph47%30.01 "Hg10 mi
11:00 PM
Oct 20
79 °FClear.10 mph48%30.01 "Hg10 mi
10:00 PM79 °FPassing clouds.9 mph54%30.01 "HgN/A
9:00 PM81 °FPassing clouds.5 mph62%29.98 "HgN/A
8:00 PM81 °FPassing clouds.3 mph62%29.95 "HgN/A
7:00 PM84 °FPassing clouds.7 mph51%29.95 "HgN/A
Weather by CustomWeather, © 2014

See weather overviewHow to use our weather pages